Location: Sevilla
(37.3933°N, 5.9839°W)
Time: 06:14:21
(UTC+02:00)

Transit 2A Rocket - Pass Details

Date: 30 June 2024
Orbit: 582 x 910 km, 66.7° (Epoch: 15 July)

Event Time Altitude Azimuth Distance (km) Brightness Sun altitude
Rises 06:00:08 0° 330° (NNW) 3,536 8.6 -11.5°
Reaches altitude 10° 06:02:40 10° 329° (NNW) 2,600 7.9 -11.2°
Maximum altitude 06:08:46 77° 245° (WSW) 931 5.3 -10.2°
Drops below altitude 10° 06:14:40 10° 160° (SSE) 2,521 7.5 -9.3°
Sets 06:17:06 0° 159° (SSE) 3,421 8.2 -8.9°
